Flag for United Arab Emirates Weather past 2 weeks in Ras al-Khaimah, Ras al-Khaimah, United Arab Emirates

Now
79 °F

Clear.


Feels Like: 80 °F
Forecast: 63 / 94 °F
Wind: 7 mph from Southwest

Location: Ras Al Khaimah International Airport


UV Index: 7 (High)

Visibility: 10 mi


Pressure: 29.77 "Hg

Humidity: 58%

Dew point: 63 °F

Location of Ras al-KhaimahLocation

Historic Weather in Ras al-Khaimah

°F

Ras al-Khaimah temperature yesterday

Maximum temperature yesterday: 102 °F (at 12:00 PM)
Minimum temperature yesterday: 68 °F (at 6:00 AM)
Average temperature yesterday: 85 °F

Past Weeks' High & Low Weather Summary

 TemperatureHumidityPressure
High106 °F (Apr 16, 2:00 PM)94% (Apr 7, 6:00 AM)30.07 "Hg (Apr 7, 6:00 AM)
Low57 °F (Apr 14, 4:00 AM)4% (Apr 11, 11:00 AM)29.68 "Hg (Apr 16, 3:00 PM)
Average82 °F41%29.86 "Hg
* Reported Apr 5 8:00 PM — Apr 20 8:00 PM, Ras al-Khaimah, Weather by CustomWeather, © 2014

Note: Actual official high and low records may vary slightly from our data, if they occured in-between our weather recording intervals... More about our weather records

Advertising

Historic Weather Conditions — Data for Previous 24 hours

 ConditionsComfort  
Time TempWeatherWind HumidityBarometerVisibility
8:00 PM
Apr 20
81 °FClear.6 mph51%29.77 "Hg5 mi
7:00 PM82 °FClear.6 mph51%29.74 "Hg5 mi
6:00 PM86 °FSunny.13 mph43%29.74 "Hg10 mi
5:00 PM90 °FClear.9 mph36%29.71 "Hg5 mi
4:00 PM90 °FClear.14 mph36%29.71 "Hg5 mi
3:00 PM91 °FClear.18 mph28%29.71 "Hg4 mi
2:00 PM91 °FClear.17 mph32%29.71 "Hg4 mi
1:00 PM93 °FClear.16 mph26%29.74 "Hg4 mi
12:00 PM93 °FClear.17 mph28%29.74 "Hg5 mi
11:00 AM93 °FSunny.14 mph23%29.77 "Hg10 mi
10:00 AM91 °FSunny.9 mph28%29.77 "Hg10 mi
9:00 AM88 °FSunny.15 mph33%29.77 "Hg10 mi
8:00 AM82 °FSunny.13 mph42%29.77 "Hg10 mi
7:00 AM79 °FSunny.12 mph45%29.77 "Hg10 mi
6:00 AM77 °FSunny.12 mph44%29.74 "Hg10 mi
5:00 AM77 °FClear.12 mph44%29.74 "Hg10 mi
4:00 AM77 °FClear.10 mph44%29.74 "Hg10 mi
3:00 AM79 °FClear.8 mph42%29.77 "Hg10 mi
2:00 AM79 °FClear.7 mph48%29.77 "Hg10 mi
1:00 AM79 °FClear.6 mph45%29.77 "Hg10 mi
12:00 AM81 °FClear.6 mph45%29.80 "Hg10 mi
11:00 PM
Apr 19
81 °FClear.7 mph54%29.80 "Hg10 mi
10:00 PM82 °FClear.3 mph55%29.83 "Hg10 mi
Weather by CustomWeather, © 2014

See weather overview